[Iaude] MPEC Q94: 2015 RL277 [a=34.43,e=0.85,i=3.1,H=16.4]

mpec at mpcdb1.cfa.harvard.edu mpec at mpcdb1.cfa.harvard.edu
Wed Aug 29 14:45:18 EDT 2018


M.P.E.C. 2018-Q94                                Issued 2018 Aug. 29, 18:41 UT
 
     The Minor Planet Electronic Circulars contain information on unusual
         minor planets and routine data on comets.  They are published
    on behalf of Division F of the International Astronomical Union by the
          Minor Planet Center, Smithsonian Astrophysical Observatory,
                          Cambridge, MA 02138, U.S.A.

             Prepared using the Tamkin Foundation Computer Network

                              MPC at CFA.HARVARD.EDU
            URL https://www.minorplanetcenter.net/    ISSN 1523-6714


                                  2015 RL277
 
Observations:
     K15RR7L @C2015 06 23.60570 00 34 54.953+06 42 59.82         24.5 rqEQ094568
     K15RR7L @C2015 07 19.53712 00 40 48.452+07 35 39.17         24.9 rqEQ094568
     K15RR7L @C2015 08 13.50040 00 40 41.089+07 49 25.25         24.6 rqEQ094568
     K15RR7L @C2015 08 19.56300 00 39 49.119+07 47 09.10         25.2 rqEQ094568
     K15RR7L @C2015 08 20.43842 00 39 40.214+07 46 38.83         24.3 rqEQ094568
     K15RR7L @C2015 08 20.48764 00 39 39.645+07 46 36.99         24.6 rqEQ094568
     K15RR7L*@C2015 09 09.40442 00 34 49.043+07 24 22.14         24.5 rqEQ094568
     K15RR7L @C2015 09 09.44553 00 34 48.286+07 24 18.35         24.6 rqEQ094568
     K15RR7L @C2015 09 09.48644 00 34 47.507+07 24 14.40         24.9 rqEQ094568
     K15RR7L @C2015 09 10.51074 00 34 28.813+07 22 35.69         24.9 wqEQ094568
     K15RR7L @C2015 09 18.47260 00 31 55.406+07 08 31.54         24.6 wqEQ094568
     K15RR7L @C2015 11 10.41159 00 16 27.158+05 25 18.79         23.7 wqEQ094568
     K15RR7L @C2015 12 08.22307 00 15 26.656+05 07 50.00         25.4 wqEQ094568
     K15RR7L @C2016 01 01.29622 00 19 58.562+05 26 55.91         25.8 wqEQ094568
     K15RR7L @C2016 09 05.56240 02 00 40.432+15 54 33.43         25.9 wqEQ094568
     K15RR7L @C2016 09 06.55374 02 00 30.858+15 54 03.33         25.5 wqEQ094568
     K15RR7L @C2016 09 27.46659 01 55 45.224+15 34 37.80         22.8 wqEQ094568
 
Observer details:
568 Mauna Kea.  Observers M. T. Bannister, J. J. Kavelaars, B. J. Gladman,
    J.-M. Petit, T. Burdullis.  Measurers S. D. J. Gwyn, Y.-T. Chen,
    M. Alexandersen, M. Schwamb.  3.6-m Canada-France-Hawaii Telescope + CCD.
 
Orbital elements:
2015 RL277
Epoch 2018 Mar. 23.0 TT = JDT 2458200.5                 MPC
M   7.39624              (2000.0)            P               Q
n   0.00487808     Peri.   10.97661     +0.64725303     +0.76080335
a  34.4326331      Node   299.37663     -0.70342468     +0.57219787
e   0.8493594      Incl.    3.11464     -0.29369582     +0.30621537
P 202              H   16.4           G   0.15           U   1
Residuals in seconds of arc
150623 568  0.1-  0.0     150909 568  0.0   0.1+    151208 568  0.0   0.1-
150719 568  0.1-  0.0     150909 568  0.2+  0.1+    160101 568  0.1-  0.0
150813 568  0.0   0.1-    150909 568  0.1-  0.1+    160905 568  0.1-  0.1+
150819 568  0.1+  0.1+    150910 568  0.1-  0.0     160906 568  0.1-  0.2-
150820 568  0.2+  0.1+    150918 568  0.1+  0.2-    160927 568  0.2+  0.1+
150820 568  0.2-  0.0     151110 568  0.1+  0.1-

Ephemeris:
2015 RL277               a,e,i = 34.43, 0.85, 3                  q = 5.1870
Date    TT    R. A. (2000) Decl.     Delta      r     Elong.  Phase     V
2018 07 30    03 31 11.8 +21 57 34  11.6682 11.3737    70.7     4.8    27.4
...
2018 08 14    03 33 33.0 +22 08 53  11.4956 11.4432    84.5     5.1    27.4
...
2018 08 22    03 34 17.0 +22 13 12  11.4001 11.4802    92.0     5.1    27.4
...
2018 08 28    03 34 35.1 +22 15 37  11.3288 11.5080    97.7     5.0    27.4
2018 08 29    03 34 36.8 +22 15 56  11.3170 11.5126    98.7     5.0    27.4
2018 08 30    03 34 38.2 +22 16 15  11.3053 11.5173    99.6     5.0    27.4
...
2018 09 05    03 34 39.0 +22 17 41  11.2360 11.5450   105.4     4.8    27.4
...
2018 09 13    03 34 19.8 +22 18 23  11.1479 11.5820   113.2     4.6    27.4
...
2018 09 28    03 32 44.0 +22 16 02  11.0044 11.6513   128.2     3.9    27.3

A. U. Tomatic                (C) Copyright 2018 MPC           M.P.E.C. 2018-Q94



More information about the Iaude mailing list